Lapse_Rate
1.6 1.4 2.1 1.9 1.8 1.8 1.8 2.0 2.2 2.4 2.5 2.5 2.3 2.4 2.7 3.1 3.5 3.6 3.6 3.7 4.0 4.4 4.6 4.4 4.4 4.6 4.7 4.6 4.4 4.2 4.1 4.0 4.3 4.7 5.0 5.5 5.6 5.3 5.1 5.0 5.3 6.2 7.0
1.5 1.6 2.1 2.0 2.1 2.0 2.0 2.1 2.3 2.5 2.6 2.4 2.5 2.5 2.8 3.0 3.1 3.2 3.5 3.8 4.2 4.4 4.4 4.4 4.5 4.6 4.4 4.2 4.0 4.1 4.0 3.9 4.2 4.7 5.3 5.6 5.6 5.4 5.3 5.1 5.2 5.7 6.0
1.3 1.7 2.2 2.3 2.1 2.2 2.0 2.1 2.4 2.6 2.5 2.6 2.5 2.5 2.7 2.7 2.9 3.1 3.3 3.5 3.8 4.3 4.6 4.6 4.6 4.6 4.2 4.1 4.0 3.9 3.9 3.9 4.2 4.5 4.9 4.9 5.1 5.7 5.5 5.1 5.0 5.3 5.5
2.4 1.9 1.9 2.2 2.5 2.4 2.4 2.3 2.4 2.5 2.5 2.7 2.7 2.5 2.5 2.6 2.8 3.0 3.1 3.3 3.6 4.0 4.5 4.7 4.8 4.6 4.0 4.0 4.0 3.9 3.9 4.0 4.1 4.3 4.2 4.6 5.4 5.8 6.0 5.3 5.1 5.1 5.1
2.1 1.3 1.2 1.9 2.2 2.5 2.6 2.7 2.7 2.6 2.6 2.6 2.7 2.8 2.9 2.9 2.9 3.0 3.2 3.3 3.7 4.1 4.4 4.7 4.8 4.3 3.9 3.9 4.1 4.2 4.1 4.1 4.1 3.9 4.0 4.2 4.9 5.8 6.5 6.1 5.8 5.3 5.0
1.9 0.9 0.6 0.7 1.0 1.6 2.0 2.2 2.6 3.1 3.1 2.9 2.9 3.0 3.2 3.1 3.2 3.2 3.2 3.4 3.7 4.0 4.5 4.7 4.5 4.3 4.2 4.1 4.4 4.5 4.2 4.2 4.3 3.7 3.8 4.0 3.8 4.7 5.9 6.1 5.9 5.9 5.1
0.1 -0.2 0.5 0.8 0.6 0.5 1.1 1.9 2.0 2.3 2.7 3.1 3.4 3.4 3.4 3.3 3.3 3.2 3.2 3.5 3.9 4.1 4.1 4.3 4.2 4.1 4.0 4.0 4.2 4.3 4.3 4.1 3.6 3.4 3.2 3.5 4.0 4.4 5.1 5.7 5.8 6.1 6.1
-0.9 -0.9 -0.9 0.1 0.4 -0.0 0.3 0.9 1.4 1.9 2.1 2.4 2.7 3.1 3.5 3.8 3.9 3.8 3.6 3.4 3.5 3.8 4.2 4.4 4.4 4.3 4.1 4.1 4.1 4.1 4.1 4.1 3.8 3.2 3.3 3.2 3.7 4.4 4.5 5.0 5.2 5.8 5.9
-1.2 -1.2 -1.5 -1.4 -0.7 -0.3 0.2 0.6 0.9 1.5 1.4 1.7 2.1 2.5 2.7 3.1 3.3 3.5 3.6 3.8 3.9 3.9 4.1 4.2 4.4 4.6 4.7 4.8 4.4 4.3 4.2 4.0 3.3 2.8 3.0 3.3 3.6 4.4 5.0 5.4 5.2 5.3 5.4
-1.4 -1.8 -2.0 -1.6 -1.2 -0.3 -0.2 0.6 1.2 1.1 0.9 1.1 1.5 1.8 2.3 2.8 2.9 3.1 3.4 3.5 3.7 3.9 4.1 4.2 4.3 4.5 5.0 5.5 5.8 5.3 4.9 4.6 3.3 2.6 2.7 3.0 3.3 4.0 4.9 5.6 5.3 5.0 5.1
-1.7 -3.1 -2.9 -2.7 -2.3 -1.4 -0.7 -0.6 -0.0 0.8 0.3 0.2 0.5 0.9 2.1 2.2 2.3 2.8 3.3 3.5 3.6 3.7 3.8 3.7 3.7 3.8 4.0 3.5 3.4 3.7 4.3 3.5 3.6 3.3 2.5 2.9 3.7 4.3 5.0 5.2 5.7 5.1 4.8
-3.1 -3.5 -4.5 -4.1 -3.9 -2.9 -2.0 -2.6 -2.0 -0.6 -0.8 -1.0 -0.6 -0.2 0.1 1.0 1.8 3.0 2.8 2.8 2.8 3.2 3.2 3.7 3.8 3.6 3.3 3.2 3.4 3.6 3.5 4.0 3.9 3.2 2.7 2.9 3.4 4.6 5.5 5.4 5.4 5.7 4.9
-3.7 -4.3 -4.9 -4.9 -4.6 -4.0 -3.4 -3.0 -2.5 -1.8 -0.7 -0.8 -1.0 -0.6 -0.6 0.5 0.6 1.7 2.3 2.4 2.9 2.7 2.8 3.3 3.2 3.1 3.1 3.2 3.6 3.5 3.5 3.6 3.9 4.2 3.9 3.3 2.8 3.8 4.6 5.3 5.5 5.5 5.4
-4.2 -4.5 -4.6 -4.7 -4.1 -3.5 -2.7 -2.7 -2.4 -1.5 -1.4 -0.5 0.4 0.5 0.3 0.2 1.0 1.3 1.0 0.6 0.7 0.8 1.1 1.7 1.8 2.4 2.5 2.5 2.7 2.7 3.4 3.8 4.0 4.3 3.9 4.0 3.8 3.7 4.2 4.4 5.1 5.2 5.0
-4.1 -4.6 -5.0 -4.3 -3.5 -2.6 -2.3 -2.2 -2.1 -2.1 -1.7 -1.5 -1.1 0.2 0.2 0.6 0.8 0.2 -0.1 -0.2 -0.2 -0.2 -0.6 -0.4 0.1 0.5 1.0 1.4 2.3 2.3 2.4 2.9 3.4 3.7 3.3 3.7 3.8 3.7 4.3 4.8 4.8 4.6 5.1
-4.3 -4.8 -4.6 -3.7 -2.9 -2.2 -2.8 -2.4 -2.3 -1.7 -1.7 -1.6 -1.7 -1.6 -1.3 -1.1 -0.7 -0.2 -0.8 -1.2 -1.1 -0.6 -0.8 -0.9 -0.6 -0.3 0.1 -0.2 0.4 0.6 0.9 1.4 2.0 2.4 3.0 2.9 3.0 3.6 3.9 4.4 5.1 4.8 5.3
-3.9 -3.8 -3.1 -3.0 -2.4 -2.2 -2.6 -2.1 -2.2 -1.7 -1.6 -1.6 -1.8 -2.1 -2.1 -1.9 -1.9 -1.7 -1.9 -1.7 -1.7 -1.3 -1.4 -1.0 -1.1 -1.1 -0.8 -0.4 -0.9 -0.6 -0.1 0.5 0.8 1.8 2.3 2.6 2.2 2.0 2.7 3.6 4.4 4.8 5.4
-3.5 -3.2 -2.7 -1.4 -2.8 -2.2 -2.2 -2.2 -2.0 -2.1 -2.0 -2.0 -2.1 -2.2 -2.2 -2.1 -2.2 -2.0 -2.3 -2.5 -2.3 -1.6 -1.5 -1.4 -1.9 -1.6 -1.2 -1.1 -1.6 -1.5 -1.2 -0.7 0.0 0.5 2.0 2.5 2.6 2.7 2.2 2.3 3.3 4.9 5.0
-2.8 -2.7 -2.9 -2.5 -2.4 -2.1 -1.9 -1.8 -2.0 -2.0 -1.9 -2.1 -2.3 -2.6 -2.7 -2.4 -2.6 -2.5 -2.5 -2.5 -2.2 -1.8 -2.0 -2.0 -1.7 -1.8 -1.5 -1.4 -1.2 -1.1 -1.4 -1.3 -0.7 0.6 1.4 2.2 3.2 3.0 2.6 2.3 3.3 4.2 4.3
-2.1 -2.5 -2.6 -2.3 -2.3 -2.1 -1.9 -1.7 -1.7 -2.1 -2.4 -2.5 -2.5 -2.8 -2.9 -3.0 -2.9 -3.1 -2.9 -2.8 -2.4 -2.2 -2.3 -2.0 -1.9 -1.3 -1.3 -1.1 -0.7 -0.6 -1.6 -1.7 -1.7 -1.1 -0.4 1.2 2.0 2.7 2.7 2.8 3.6 3.7 3.6
-1.7 -1.6 -1.9 -1.7 -2.3 -1.5 -1.5 -1.6 -2.0 -2.6 -2.6 -2.6 -2.4 -2.7 -2.8 -2.9 -2.8 -3.1 -2.9 -2.7 -2.4 -2.2 -2.2 -1.8 -1.9 -1.4 -0.9 -0.0 -0.7 -0.7 -1.1 -0.2 -0.3 -0.6 0.2 0.5 1.8 2.2 2.9 3.0 2.8 3.2 3.8
-1.1 -1.5 -1.7 -2.0 -2.3 -1.9 -1.7 -1.9 -1.8 -2.6 -2.9 -3.0 -2.8 -2.6 -2.6 -2.8 -3.0 -2.4 -3.1 -2.9 -2.7 -2.3 -2.0 -1.6 -1.2 -0.9 0.0 1.1 1.5 2.2 1.8 0.9 0.7 1.7 1.8 2.4 3.2 2.6 2.8 3.1 2.4 2.3 3.1
-1.8 -2.3 -2.1 -2.5 -2.4 -1.8 -2.0 -2.0 -2.3 -2.5 -2.5 -2.6 -3.0 -3.3 -2.9 -2.7 -2.5 -2.2 -1.8 -2.0 -2.1 -2.0 -1.7 -0.8 0.4 1.0 1.6 2.6 4.2 5.8 6.1 6.0 3.9 2.1 3.2 2.8 3.3 3.1 2.9 3.0 2.9 2.5 2.7
-1.3 -1.9 -2.1 -2.4 -2.7 -2.3 -2.5 -2.3 -2.0 -2.7 -3.1 -3.3 -3.2 -3.0 -2.4 -1.6 -1.6 -1.4 -1.5 -1.8 -1.7 -1.5 -1.2 0.2 1.0 1.6 3.4 5.7 4.9 6.1 6.5 6.9 7.2 5.9 3.2 3.9 3.8 4.1 3.3 3.5 3.4 3.1 2.9
-1.0 -2.1 -2.2 -2.4 -2.6 -2.9 -3.4 -3.5 -3.4 -3.5 -3.6 -3.4 -2.9 -2.3 -2.2 -2.0 -1.9 -1.8 -2.2 -2.4 -2.1 -1.2 -0.0 1.2 2.0 3.1 5.7 6.0 5.9 5.9 6.4 6.3 7.0 6.5 7.1 7.0 4.0 4.2 3.9 5.0 4.6 3.5 2.9
-1.5 -2.1 -2.0 -2.1 -2.6 -3.0 -3.4 -3.4 -3.4 -3.5 -3.5 -3.1 -2.9 -2.7 -2.5 -2.4 -2.4 -2.5 -2.1 -1.9 -1.0 0.3 1.5 2.7 4.6 5.1 4.8 4.7 4.7 4.8 4.8 5.7 5.5 5.5 6.4 5.8 6.1 7.8 6.6 5.5 5.3 3.9 4.2
Wind_Speed
0 4 7 7 8 11 13 14 14 14 15 15 16 16 17 18 17 16 16 15 14 13 12 11 10 9 9 10 10 11 11 11 10 9 11 10 11 11 12 12 11 9 14
6 6 6 7 8 10 12 12 13 13 14 14 14 15 16 16 16 16 15 14 13 12 12 10 10 9 9 10 10 10 11 10 9 8 9 9 10 10 10 12 11 9 12
7 9 7 5 8 8 10 11 11 12 12 13 13 14 14 14 14 15 14 13 12 12 11 10 9 9 9 9 9 10 10 10 9 8 8 6 6 9 6 8 11 10 11
9 13 12 8 5 6 7 8 9 11 11 11 12 12 12 13 13 12 12 11 11 11 10 8 7 8 9 10 9 9 10 9 9 8 6 6 4 6 4 8 10 11 11
13 17 15 14 13 10 8 7 6 7 8 8 8 8 9 9 10 10 9 9 8 7 7 7 6 6 7 8 8 8 8 7 8 8 8 5 3 4 5 7 10 10 11
13 17 20 20 18 15 12 10 8 5 3 5 5 6 7 7 7 8 8 7 7 7 6 5 5 4 4 5 5 5 6 5 3 4 4 4 5 5 6 8 12 12 12
10 13 16 20 20 18 13 12 12 10 7 4 2 3 5 7 8 8 7 7 6 6 7 7 6 6 6 6 5 5 5 5 5 3 3 5 6 7 6 8 15 14 16
9 12 14 17 20 21 21 17 13 12 10 8 6 4 4 4 4 5 6 8 8 8 8 7 8 8 8 8 7 7 6 5 4 5 6 6 8 9 11 14 16 17 17
11 12 13 14 16 17 20 19 18 16 15 14 11 9 7 5 3 4 5 7 7 7 9 8 10 11 11 11 10 10 10 9 8 7 8 9 10 11 10 14 18 19 19
8 10 10 12 13 13 13 16 17 16 16 14 12 12 9 7 6 6 5 6 6 7 8 9 10 12 14 13 12 14 15 13 12 10 12 14 13 13 14 12 18 20 20
8 8 9 9 12 12 12 12 11 13 15 16 15 14 10 7 7 5 4 5 5 6 7 7 9 11 13 11 11 15 17 11 10 12 13 18 18 15 14 15 16 21 21
6 6 6 8 10 11 11 13 13 12 13 16 15 14 12 12 12 10 13 14 15 12 10 6 4 5 7 8 8 12 9 13 12 11 11 16 17 16 16 14 13 22 22
4 4 6 5 10 10 9 10 10 11 11 12 16 14 12 11 12 12 10 12 12 13 12 10 10 10 7 6 5 7 8 12 11 12 14 18 18 18 15 15 14 17 23
6 5 5 7 7 11 10 10 10 10 11 11 14 16 11 9 9 10 10 11 11 13 10 11 8 8 7 7 6 6 7 7 8 9 11 17 19 19 18 17 17 16 23
7 5 5 6 6 8 9 9 10 10 12 12 14 17 14 10 6 8 9 10 11 11 11 9 9 9 7 8 7 5 4 6 8 8 9 16 17 18 19 20 19 18 19
6 6 5 6 7 9 6 9 8 11 11 14 15 16 17 14 11 9 8 9 11 13 11 8 7 5 4 7 5 8 7 8 8 8 9 11 18 19 18 14 13 12 8
4 6 7 6 7 7 6 9 10 12 14 13 13 17 18 17 13 11 9 7 11 11 12 10 10 8 5 7 6 7 9 11 11 9 8 9 10 20 18 17 16 17 16
7 6 5 5 7 6 7 9 11 12 13 13 13 15 17 17 16 12 8 8 13 12 10 7 6 6 5 5 5 6 6 8 10 11 11 10 8 10 13 15 18 15 15
6 6 6 6 7 7 8 11 12 13 13 12 14 14 15 15 16 11 10 10 11 9 8 6 6 6 5 7 7 7 6 6 6 7 6 7 9 9 9 10 13 14 19
5 6 7 5 6 7 6 7 8 9 10 13 12 13 14 13 14 12 10 11 11 5 6 6 6 6 3 8 8 7 6 5 4 3 4 4 5 7 8 8 6 7 15
4 5 5 6 4 4 2 4 4 4 3 5 11 13 14 14 14 13 10 10 11 7 7 8 5 7 3 9 4 6 4 4 4 4 6 6 8 12 14 14 15 15 10
6 4 5 6 6 3 3 3 3 3 4 4 8 10 13 14 15 13 11 6 8 5 7 6 7 5 3 6 3 4 4 4 5 5 4 6 8 10 10 15 16 16 15
8 7 6 5 6 4 5 6 5 4 3 3 3 3 10 13 13 12 10 8 7 5 5 6 8 9 7 7 8 4 4 3 7 3 4 4 6 7 7 11 15 14 15
7 6 6 6 6 5 5 5 4 3 3 2 2 2 5 12 11 11 11 10 8 6 6 6 7 6 6 6 4 7 5 5 3 5 2 3 5 7 7 8 8 12 13
8 7 6 6 6 5 6 7 7 7 4 3 3 4 5 6 10 10 11 10 8 7 6 7 7 7 5 5 4 4 5 5 5 4 9 7 6 6 4 7 4 9 13
8 7 6 7 5 6 6 6 8 8 6 4 3 3 3 3 5 11 13 12 11 9 6 6 7 9 7 6 5 5 4 3 5 3 4 8 11 6 8 5 5 8 13
Wind_Direction
161 120 95 89 90 87 86 89 94 98 98 97 101 106 112 116 120 128 133 137 138 136 136 133 126 113 102 94 86 80 76 77 80 89 105 111 113 112 116 109 113 118 128
96 92 107 113 102 100 97 94 96 102 107 106 105 108 113 121 128 134 138 139 137 139 144 143 135 125 115 108 101 95 90 89 91 88 102 115 119 122 131 135 124 130 125
82 85 76 72 103 105 107 108 109 110 112 113 118 122 126 128 132 137 142 142 142 146 149 150 147 141 131 124 115 107 102 101 100 108 107 108 127 135 133 135 139 139 141
68 56 47 47 65 97 101 106 114 109 111 121 129 130 134 137 140 143 149 150 151 152 155 158 160 158 153 143 132 123 118 118 121 124 126 143 154 170 162 168 161 161 153
60 53 43 48 49 52 63 66 69 97 114 122 128 133 140 143 148 153 160 163 164 164 166 168 165 163 164 156 143 132 126 133 137 133 137 141 213 235 225 186 185 176 167
59 53 48 53 49 49 52 55 44 27 82 117 133 144 155 160 165 171 178 185 187 185 195 196 186 177 175 171 150 138 131 132 136 143 162 194 210 235 246 219 200 191 182
54 42 48 48 50 44 41 50 47 41 23 11 323 203 194 184 183 185 191 206 218 220 218 216 212 212 209 209 185 175 168 166 167 212 199 209 222 222 244 238 207 202 197
54 45 44 44 45 46 44 44 47 43 37 28 20 343 302 282 265 238 216 212 218 228 238 247 236 229 231 232 224 209 206 208 212 229 252 242 245 243 246 226 205 204 202
50 47 39 38 42 43 43 41 44 45 38 33 28 19 0 330 285 260 261 259 257 253 254 252 262 267 253 238 240 241 228 227 232 240 256 260 251 255 255 224 206 204 201
52 44 33 37 39 44 43 41 44 45 43 38 30 20 8 351 352 333 309 292 286 278 272 273 272 270 272 275 269 254 252 244 240 241 248 255 255 254 261 264 225 206 201
52 36 27 37 39 40 45 39 39 41 44 39 26 18 20 11 9 355 357 352 331 308 292 286 283 283 287 282 271 261 259 252 243 241 233 248 258 260 262 260 246 211 202
50 34 20 29 36 44 50 36 33 35 38 37 28 24 30 28 33 45 51 47 45 39 38 23 350 322 312 287 273 278 254 248 237 235 236 243 248 262 273 267 264 222 205
78 57 32 34 46 47 43 44 39 35 38 35 31 25 27 30 25 31 37 37 32 28 31 32 36 28 18 349 303 296 276 250 233 232 236 238 227 225 234 263 262 238 217
85 65 48 48 56 53 54 48 46 47 41 36 32 26 27 28 30 33 37 31 26 20 18 22 18 19 21 16 9 342 321 300 250 243 243 251 243 235 229 224 237 244 230
94 80 64 63 60 61 62 55 55 53 51 44 35 27 26 27 34 34 36 33 33 16 24 17 7 356 358 351 348 349 329 320 304 269 247 254 255 239 238 233 226 222 228
129 110 87 78 76 81 74 65 60 59 56 54 45 33 31 29 23 32 28 30 29 12 7 14 9 351 339 335 324 326 307 294 290 280 269 258 237 232 230 227 220 215 242
124 111 98 93 89 79 80 78 67 60 56 52 45 38 36 34 30 33 30 26 18 13 6 5 6 355 353 334 339 321 314 307 295 283 266 254 238 237 233 242 240 248 234
114 111 99 101 99 91 87 82 74 63 62 57 49 43 38 35 33 39 35 24 10 20 13 5 8 351 343 334 325 304 297 292 290 288 281 265 244 254 260 258 257 260 270
135 135 107 91 95 100 85 79 73 66 59 54 51 43 34 34 32 41 38 27 22 28 23 14 3 357 337 340 317 297 283 285 289 298 291 298 293 283 277 274 268 256 252
137 120 110 99 104 106 105 97 82 70 60 52 47 44 36 31 33 35 33 27 24 28 24 15 10 357 325 337 313 302 290 288 303 294 288 301 349 340 322 301 276 233 236
132 121 118 114 106 125 112 103 75 68 53 48 50 43 38 33 31 33 30 25 22 28 17 10 357 358 345 352 330 334 318 332 14 22 34 37 43 33 21 19 22 15 355
145 124 103 100 103 112 110 112 119 121 79 83 62 50 40 35 31 35 29 20 17 21 19 13 18 2 350 356 339 311 336 333 356 12 41 45 45 33 30 15 16 5 4
152 146 126 111 100 101 114 111 99 99 83 53 31 41 37 40 35 31 28 26 22 26 20 11 15 14 1 2 350 7 339 327 337 331 19 39 48 43 25 8 359 10 4
154 138 131 115 101 93 104 108 110 114 112 70 66 54 42 43 34 29 31 31 30 28 29 24 24 21 12 2 339 4 353 312 323 315 321 356 19 34 33 357 351 358 21
143 139 120 103 91 91 92 100 104 98 99 112 82 72 49 36 38 36 38 33 32 27 27 33 31 27 28 25 9 338 331 323 289 315 293 322 342 359 19 347 356 15 27
134 131 132 120 104 92 93 98 108 117 120 108 88 70 43 27 30 32 36 32 26 18 21 27 35 39 28 35 23 15 9 347 352 331 311 328 311 330 340 315 57 38 25